Location: Marcé
(47.5801°N, 0.3280°W)
Time: 19:28:54
(UTC+01:00)

Tiros 1 despin weight - Pass Details

Date: 16 December 2021
Orbit: 592 x 641 km, 48.2° (Epoch: 16 January)

Event Time Altitude Azimuth Distance (km) Brightness Sun altitude
Rises 09:26:08 0° 224° (SW) 2,884 ? 4.8°
Reaches altitude 10° 09:28:35 10° 216° (SW) 1,972 ? 5.1°
Maximum altitude 09:32:44 37° 149° (SSE) 955 ? 5.6°
Drops below altitude 10° 09:36:52 10° 83° (E) 1,951 ? 6.1°
Sets 09:39:16 0° 75° (ENE) 2,849 ? 6.3°
